TimeEDT,TemperatureF,Dew PointF,Humidity,Sea Level PressureIn,VisibilityMPH,Wind Direction,Wind SpeedMPH,Gust SpeedMPH,PrecipitationIn,Events,Conditions,WindDirDegrees,DateUTC
12:54 AM,37.0,14.0,39,30.03,10.0,Calm,Calm,-,N/A,,Clear,0,2013-03-23 04:54:00
1:54 AM,34.0,15.1,46,30.03,10.0,Calm,Calm,-,N/A,,Clear,0,2013-03-23 05:54:00
2:54 AM,30.9,16.0,54,30.03,10.0,Calm,Calm,-,N/A,,Clear,0,2013-03-23 06:54:00
3:54 AM,32.0,16.0,52,30.01,10.0,Calm,Calm,-,N/A,,Overcast,0,2013-03-23 07:54:00
4:54 AM,32.0,18.0,56,30.02,10.0,Calm,Calm,-,N/A,,Overcast,0,2013-03-23 08:54:00
5:54 AM,33.1,19.9,59,30.01,10.0,NW,3.5,-,N/A,,Overcast,320,2013-03-23 09:54:00
6:54 AM,33.8,19.4,56,30.01,10.0,Calm,Calm,-,N/A,,Overcast,0,2013-03-23 10:54:00
7:54 AM,35.1,19.0,52,30.04,10.0,Calm,Calm,-,N/A,,Overcast,0,2013-03-23 11:54:00
8:54 AM,37.4,21.2,52,30.05,10.0,Calm,Calm,-,N/A,,Overcast,0,2013-03-23 12:54:00
9:54 AM,39.9,19.0,43,30.06,10.0,Calm,Calm,-,N/A,,Overcast,0,2013-03-23 13:54:00
10:54 AM,44.1,17.1,34,30.06,10.0,Calm,Calm,-,N/A,,Mostly Cloudy,0,2013-03-23 14:54:00
11:54 AM,46.9,14.0,27,30.04,10.0,NW,6.9,-,N/A,,Overcast,310,2013-03-23 15:54:00
12:54 PM,48.9,14.0,25,30.02,10.0,Variable,3.5,-,N/A,,Mostly Cloudy,0,2013-03-23 16:54:00
1:54 PM,53.1,16.0,23,29.99,10.0,WSW,6.9,-,N/A,,Mostly Cloudy,250,2013-03-23 17:54:00
2:54 PM,52.0,16.0,24,29.98,10.0,SW,6.9,-,N/A,,Mostly Cloudy,220,2013-03-23 18:54:00
3:54 PM,54.0,18.0,24,29.95,10.0,South,3.5,-,N/A,,Mostly Cloudy,180,2013-03-23 19:54:00
4:54 PM,57.0,19.9,24,29.93,10.0,West,6.9,-,N/A,,Scattered Clouds,260,2013-03-23 20:54:00
5:54 PM,57.0,21.0,25,29.92,10.0,WNW,12.7,-,N/A,,Partly Cloudy,290,2013-03-23 21:54:00
6:54 PM,54.0,19.9,26,29.92,10.0,NW,11.5,-,N/A,,Clear,320,2013-03-23 22:54:00
7:54 PM,50.0,19.0,29,29.94,10.0,WNW,4.6,-,N/A,,Clear,290,2013-03-23 23:54:00
8:54 PM,46.9,19.9,34,29.95,10.0,NW,6.9,-,N/A,,Clear,310,2013-03-24 00:54:00
9:54 PM,46.9,19.9,34,29.96,10.0,NW,5.8,-,N/A,,Clear,320,2013-03-24 01:54:00
10:54 PM,45.0,21.0,39,29.96,10.0,ESE,4.6,-,N/A,,Clear,110,2013-03-24 02:54:00
11:54 PM,45.0,21.0,39,29.93,10.0,NNE,6.9,-,N/A,,Clear,30,2013-03-24 03:54:00